TimeEST,TemperatureF,Dew PointF,Humidity,Sea Level PressureIn,VisibilityMPH,Wind Direction,Wind SpeedMPH,Gust SpeedMPH,PrecipitationIn,Events,Conditions,WindDirDegrees,DateUTC
12:15 AM,23.4,15.8,73,30.03,10.0,Calm,Calm,-,N/A,,Clear,0,2014-01-16 05:15:00
12:35 AM,22.8,15.8,74,30.03,10.0,Calm,Calm,-,N/A,,Clear,0,2014-01-16 05:35:00
12:55 AM,23.0,16.2,75,30.03,10.0,WSW,3.5,-,N/A,,Clear,240,2014-01-16 05:55:00
1:15 AM,22.6,16.2,76,30.02,10.0,Calm,Calm,-,N/A,,Clear,0,2014-01-16 06:15:00
1:35 AM,21.9,16.2,78,30.02,10.0,WSW,3.5,-,N/A,,Clear,250,2014-01-16 06:35:00
1:55 AM,21.9,16.5,80,30.02,10.0,Calm,Calm,-,N/A,,Mostly Cloudy,0,2014-01-16 06:55:00
2:15 AM,21.9,16.5,80,30.03,10.0,Calm,Calm,-,N/A,,Mostly Cloudy,0,2014-01-16 07:15:00
2:35 AM,21.9,16.5,80,30.03,10.0,Calm,Calm,-,N/A,,Mostly Cloudy,0,2014-01-16 07:35:00
2:55 AM,22.1,16.7,80,30.03,10.0,Calm,Calm,-,N/A,,Overcast,0,2014-01-16 07:55:00
3:15 AM,22.1,16.7,80,30.02,10.0,Calm,Calm,-,N/A,,Overcast,0,2014-01-16 08:15:00
3:35 AM,22.3,16.3,78,30.02,10.0,Calm,Calm,-,N/A,,Scattered Clouds,0,2014-01-16 08:35:00
3:55 AM,21.9,16.2,78,30.01,10.0,Calm,Calm,-,N/A,,Clear,0,2014-01-16 08:55:00
4:15 AM,21.6,17.4,84,30.01,10.0,Calm,Calm,-,N/A,,Scattered Clouds,0,2014-01-16 09:15:00
4:35 AM,22.1,16.7,80,30.01,10.0,Calm,Calm,-,N/A,,Overcast,0,2014-01-16 09:35:00
4:55 AM,22.1,17.1,81,30.01,10.0,Calm,Calm,-,N/A,,Overcast,0,2014-01-16 09:55:00
5:15 AM,22.5,18.1,83,30.01,10.0,Calm,Calm,-,N/A,,Overcast,0,2014-01-16 10:15:00
5:35 AM,22.5,17.8,82,30.01,10.0,Calm,Calm,-,N/A,,Overcast,0,2014-01-16 10:35:00
5:55 AM,22.8,18.1,82,30.00,10.0,South,4.6,-,N/A,,Overcast,190,2014-01-16 10:55:00
6:15 AM,22.8,18.5,83,30.01,10.0,Calm,Calm,-,N/A,,Overcast,0,2014-01-16 11:15:00
6:35 AM,22.5,18.5,85,30.01,10.0,Calm,Calm,-,N/A,,Overcast,0,2014-01-16 11:35:00
6:55 AM,22.8,18.7,84,30.01,10.0,SW,3.5,-,N/A,,Overcast,220,2014-01-16 11:55:00
7:15 AM,23.0,18.5,83,30.02,10.0,SW,3.5,-,N/A,,Overcast,220,2014-01-16 12:15:00
7:35 AM,23.0,18.5,83,30.02,10.0,SSW,3.5,-,N/A,,Overcast,210,2014-01-16 12:35:00
7:55 AM,23.5,18.0,79,30.01,10.0,SSW,5.8,-,N/A,,Overcast,210,2014-01-16 12:55:00
8:15 AM,23.7,17.2,76,30.02,10.0,SSW,4.6,-,N/A,,Overcast,200,2014-01-16 13:15:00
8:35 AM,23.9,17.4,76,30.01,10.0,South,5.8,-,N/A,,Mostly Cloudy,190,2014-01-16 13:35:00
8:55 AM,24.8,17.8,75,30.01,10.0,SSW,6.9,-,N/A,,Scattered Clouds,200,2014-01-16 13:55:00
9:15 AM,25.7,17.6,71,30.01,10.0,SW,5.8,-,N/A,,Clear,220,2014-01-16 14:15:00
9:55 AM,27.1,16.7,65,30.01,10.0,SW,8.1,-,N/A,,Clear,230,2014-01-16 14:55:00
10:15 AM,27.5,16.5,63,30.01,10.0,SSW,8.1,-,N/A,,Clear,210,2014-01-16 15:15:00
10:35 AM,28.9,16.9,61,29.99,10.0,South,10.4,-,N/A,,Clear,180,2014-01-16 15:35:00
10:55 AM,29.7,16.3,58,29.96,10.0,SSE,11.5,16.1,N/A,,Clear,160,2014-01-16 15:55:00
11:15 AM,30.2,16.3,56,29.95,10.0,SSE,10.4,-,N/A,,Clear,160,2014-01-16 16:15:00
11:35 AM,31.8,16.7,54,29.95,10.0,South,10.4,-,N/A,,Clear,190,2014-01-16 16:35:00
11:55 AM,32.0,16.5,53,29.95,10.0,SW,9.2,-,N/A,,Clear,230,2014-01-16 16:55:00
12:15 PM,32.0,16.2,52,29.92,10.0,SW,5.8,-,N/A,,Clear,220,2014-01-16 17:15:00
12:35 PM,34.0,16.9,50,29.90,10.0,South,8.1,-,N/A,,Clear,170,2014-01-16 17:35:00
12:55 PM,35.2,16.5,47,29.90,10.0,SW,9.2,-,N/A,,Clear,230,2014-01-16 17:55:00
1:15 PM,34.3,14.9,45,29.88,10.0,SSW,8.1,-,N/A,,Clear,210,2014-01-16 18:15:00
1:35 PM,35.8,15.4,44,29.87,10.0,SSW,3.5,-,N/A,,Clear,210,2014-01-16 18:35:00
1:55 PM,36.1,16.3,45,29.86,10.0,South,9.2,-,N/A,,Mostly Cloudy,180,2014-01-16 18:55:00
2:15 PM,37.4,15.4,41,29.85,10.0,WSW,9.2,-,N/A,,Mostly Cloudy,240,2014-01-16 19:15:00
2:35 PM,37.8,14.9,39,29.85,10.0,SW,8.1,-,N/A,,Scattered Clouds,220,2014-01-16 19:35:00
2:55 PM,36.7,13.5,39,29.85,10.0,SW,5.8,-,N/A,,Mostly Cloudy,230,2014-01-16 19:55:00
3:15 PM,37.4,14.4,39,29.84,10.0,SW,9.2,-,N/A,,Overcast,220,2014-01-16 20:15:00
3:35 PM,37.0,13.3,38,29.84,10.0,SSW,6.9,-,N/A,,Overcast,210,2014-01-16 20:35:00
3:55 PM,37.4,13.1,37,29.84,10.0,SW,5.8,-,N/A,,Overcast,220,2014-01-16 20:55:00
4:15 PM,37.4,12.9,37,29.84,10.0,SSW,5.8,-,N/A,,Overcast,200,2014-01-16 21:15:00
4:35 PM,37.4,12.2,36,29.83,10.0,SSW,3.5,-,N/A,,Overcast,210,2014-01-16 21:35:00
4:55 PM,37.4,12.7,36,29.83,10.0,South,4.6,-,N/A,,Overcast,180,2014-01-16 21:55:00
5:15 PM,37.2,13.1,37,29.83,10.0,South,3.5,-,N/A,,Overcast,190,2014-01-16 22:15:00
5:35 PM,36.9,13.8,39,29.82,10.0,Calm,Calm,-,N/A,,Overcast,0,2014-01-16 22:35:00
5:55 PM,36.5,14.9,41,29.82,10.0,SSW,3.5,-,N/A,,Overcast,200,2014-01-16 22:55:00
6:15 PM,36.5,15.4,42,29.82,10.0,South,4.6,-,N/A,,Overcast,170,2014-01-16 23:15:00
6:35 PM,36.9,13.8,39,29.82,10.0,SSW,4.6,-,N/A,,Overcast,200,2014-01-16 23:35:00
6:55 PM,36.7,14.7,41,29.83,10.0,SW,4.6,-,N/A,,Overcast,220,2014-01-16 23:55:00
7:15 PM,36.9,16.2,43,29.83,10.0,South,8.1,-,N/A,,Overcast,190,2014-01-17 00:15:00
7:35 PM,36.9,16.3,43,29.82,10.0,South,8.1,-,N/A,,Overcast,170,2014-01-17 00:35:00
7:55 PM,36.9,17.2,45,29.83,10.0,South,9.2,-,N/A,,Overcast,190,2014-01-17 00:55:00
8:15 PM,36.9,17.6,46,29.83,10.0,South,8.1,-,N/A,,Overcast,190,2014-01-17 01:15:00
8:35 PM,36.9,17.6,46,29.84,10.0,SSW,6.9,-,N/A,,Overcast,200,2014-01-17 01:35:00
8:55 PM,36.7,17.6,46,29.85,10.0,SSW,5.8,-,N/A,,Overcast,210,2014-01-17 01:55:00
9:15 PM,36.7,18.0,47,29.87,10.0,WSW,11.5,16.1,N/A,,Overcast,240,2014-01-17 02:15:00
9:35 PM,35.1,23.9,64,29.86,10.0,WSW,6.9,-,N/A,,Overcast,250,2014-01-17 02:35:00
9:55 PM,35.8,23.2,60,29.88,10.0,SW,10.4,19.6,N/A,,Overcast,230,2014-01-17 02:55:00
10:15 PM,36.1,24.4,63,29.88,10.0,WSW,12.7,20.7,N/A,,Overcast,240,2014-01-17 03:15:00
10:35 PM,36.7,23.5,59,29.88,10.0,WSW,10.4,18.4,N/A,,Overcast,250,2014-01-17 03:35:00
10:55 PM,36.9,22.1,55,29.88,10.0,SW,6.9,16.1,N/A,,Overcast,230,2014-01-17 03:55:00
11:15 PM,37.4,22.6,55,29.88,10.0,WSW,8.1,-,N/A,,Overcast,240,2014-01-17 04:15:00
11:35 PM,37.4,22.3,54,29.87,10.0,SW,5.8,-,N/A,,Overcast,230,2014-01-17 04:35:00
11:55 PM,36.9,22.1,55,29.87,10.0,SW,4.6,-,N/A,,Overcast,230,2014-01-17 04:55:00